EUTELSAT 36B

Last updated on Thu Sep 10 2026 00:02:56 GMT+0000 (Coordinated Universal Time)

1 36101U 09065A 26252.59562834 .00000091 00000+0 00000+0 0 9998 2 36101 0.6983 81.1885 0005706 89.9481 82.4537 1.00274526 61550
UTC large
Height (km)
Speed (km/s)
/
Latitude / Longitude
Inclination (degrees)
Orbital Period (minutes)
Azimuth
Elevation
Range (km)
Doppler Factor

Next 0 passes for location: London (51.5072 / 0.1276)

No passes found over London.
EUTELSAT 36B